[[{"header":{"parameterUnit":"m.s-1","parameterCategory":1,"la1":30.2991,"la2":30.254,"lo1":-89.0895,"lo2":-89.0444,"dy":0.0017,"dx":0.0017,"nx":28,"ny":28,"refTime":"2024-06-16T09:00:00:Z","depth":0,"parameterNumber":2,"parameterNumberName":"U-component_of_WINDS"},"data":[0,0,0,0,0,0,0,0,0,0,0,0,0,0,0,0,0,0,0,0,0,0,0,0,0,0,0,0,0,0,0,0,0,0,0,0,0,0,0,0,0,0,0,0,0,0,0,0,0,0,0,0,0,0,0,0,0,0,-7.4986,-7.4987,0,-7.509,-7.5091,-7.5093,-7.5017,-7.5014,-7.5011,-7.5008,-7.5108,-7.5114,-7.512,0,0,0,0,0,0,0,0,0,0,0,0,0,-7.4717,-7.4722,-7.4986,-7.4987,-7.4989,-7.509,-7.5092,-7.5093,-7.5018,-7.5014,-7.501,-7.5006,-7.5106,-7.5113,-7.512,0,0,0,0,0,0,0,0,0,0,0,0,0,-7.4829,-7.4724,-7.4986,-7.4964,-7.4963,-7.509,-7.5092,-7.5093,-7.5019,-7.5014,-7.5009,-7.5004,-7.5104,-7.5113,-7.5121,-7.5274,0,0,-7.5147,-7.5151,0,0,0,0,0,0,0,0,-7.4822,-7.4838,-7.4966,-7.4966,-7.4965,-7.5036,-7.5033,-7.5154,-7.502,-7.4997,-7.5008,-7.5002,-7.5088,-7.5097,-7.5128,-7.5278,-7.5283,-7.5148,-7.5153,-7.5157,-7.516,0,0,0,0,0,0,0,-7.4815,-7.4833,-7.5027,-7.4968,-7.4967,-7.4947,-7.4957,-7.5056,-7.5069,-7.4999,-7.4994,-7.5008,-7.5086,-7.512,-7.5129,-7.5284,-7.5148,-7.5156,-7.5161,-7.5164,-7.5563,-7.5568,0,0,0,0,0,0,-7.481,-7.4828,-7.5024,-7.503,-7.488,-7.4956,-7.4967,-7.5018,-7.5068,-7.5071,-7.5012,-7.5004,-7.5107,-7.5119,-7.5133,-7.5312,-7.5157,-7.5165,-7.517,-7.5558,-7.5564,-7.557,0,0,0,0,0,0,-7.4804,-7.4828,-7.502,-7.4928,-7.4951,-7.4966,-7.5023,-7.5023,-7.5055,-7.5077,-7.5079,-7.5043,-7.5104,-7.5121,-7.5239,-7.5314,-7.5169,-7.5177,-7.5551,-7.556,-7.5567,-7.5673,0,0,0,0,0,0,-7.4797,-7.4826,-7.4886,-7.493,-7.4956,-7.5126,-7.5028,-7.5028,-7.5071,-7.5062,-7.5107,-7.511,-7.5101,-7.5227,-7.5248,-7.5324,-7.5184,-7.5544,-7.5555,-7.5565,-7.5663,-7.5684,-7.5702,0,0,0,0,0,-7.4788,-7.4911,-7.4889,-7.4913,-7.503,-7.5131,-7.5145,-7.5134,-7.5078,-7.5136,-7.515,-7.5109,-7.5304,-7.5239,-7.5262,-7.5342,-7.5539,-7.5552,-7.5564,-7.5654,-7.568,-7.5702,0,0,0,0,0,0,-7.4872,-7.4916,-7.4892,-7.5034,-7.508,-7.5118,-7.5191,-7.5162,-7.5223,-7.5211,-7.5193,-7.5204,-7.5328,-7.5348,-7.5275,-7.5492,-7.5412,-7.543,-7.5473,-7.5498,-7.5517,-7.5507,-7.5191,0,0,0,0,0,-7.4908,-7.4988,-7.5021,-7.5142,-7.5167,-7.5176,-7.5219,-7.5207,-7.5252,-7.527,-7.5293,-7.5337,-7.5408,-7.5455,-7.5522,-7.5668,-7.5674,-7.5734,-7.5753,-7.5769,-7.5783,-7.5859,-7.5884,-7.561,-7.561,-7.561,0,0,-7.4981,-7.5015,-7.5066,-7.516,-7.5194,-7.5274,-7.5192,-7.5281,-7.5339,-7.5283,-7.5395,-7.5415,-7.5463,-7.5595,-7.5654,-7.5615,-7.5861,-7.5785,-7.5797,-7.5802,-7.5874,-7.59,-7.5923,-7.5618,-7.5617,-7.5615,0,0,-7.5155,-7.5191,-7.5294,-7.5331,-7.5384,-7.5389,-7.5415,-7.5458,-7.5469,-7.5583,-7.5542,-7.5611,-7.5735,-7.577,-7.5804,-7.5994,-7.5956,-7.6017,-7.6116,-7.6191,-7.6212,-7.6231,-7.6295,-7.6319,-7.6031,-7.6032,-7.6032,0,-7.5238,-7.536,-7.5351,-7.5443,-7.5484,-7.5441,-7.5544,-7.5579,-7.5651,-7.5679,-7.5636,-7.579,-7.5819,-7.5958,-7.6004,-7.6035,-7.6061,-7.6008,-7.621,-7.6229,-7.6247,-7.6307,-7.6332,-7.6038,-7.6037,-7.6037,-7.6036,0,-7.5458,-7.5543,-7.5621,-7.5693,-7.5743,-7.5841,-7.5844,-7.5897,-7.5882,-7.5891,-7.6007,-7.6042,-7.6114,-7.6147,-7.6132,-7.6283,-7.6257,-7.6213,-7.6132,-7.6279,-7.6336,-7.6359,-7.6048,-7.6045,-7.6043,-7.6042,0,0,-7.5684,-7.5752,-7.578,-7.5811,-7.5868,-7.5932,-7.6028,-7.6101,-7.6144,-7.6196,-7.6273,-7.638,-7.634,-7.6378,-7.6368,-7.6434,-7.6578,-7.6381,-7.6382,-7.6412,-7.6743,-7.6772,-7.6799,-7.6556,-7.6561,-7.6564,-7.6737,0,-7.5857,-7.6024,-7.6019,-7.6174,-7.6251,-7.6212,-7.6294,-7.6337,-7.635,-7.6415,-7.6428,-7.6503,-7.6445,-7.6468,-7.6532,-7.6547,-7.6643,-7.6535,-7.6623,-7.6627,-7.6608,-7.683,-7.6861,-7.7023,-7.676,-7.6764,-7.6766,0,-7.608,-7.6141,-7.6304,-7.6349,-7.6381,-7.6456,-7.6521,-7.6586,-7.6633,-7.6637,-7.6683,-7.6662,-7.6756,-7.6678,-7.6806,-7.6732,-7.6769,-7.6782,-7.6788,-7.6791,-7.6702,-7.6834,-7.7074,-7.7097,-7.6802,-7.6799,-7.6796,0,-7.6223,-7.6347,-7.6459,-7.6488,-7.6545,-7.6597,-7.6623,-7.6666,-7.671,-7.6768,-7.6795,-7.6863,-7.6899,-7.6951,-7.6949,-7.6892,-7.7078,-7.6999,-7.7081,-7.7081,-7.7117,-7.7113,-7.7361,-7.7149,-7.7149,-7.7149,-7.7148,0,-7.6414,-7.6514,-7.6524,-7.6593,-7.6703,-7.6697,-7.6806,-7.6826,-7.6865,-7.6936,-7.6907,-7.6974,-7.6969,-7.7035,-7.7035,-7.7139,-7.7157,-7.716,-7.7158,-7.716,-7.7159,-7.718,-7.7166,-7.7155,-7.7154,-7.7152,-7.7151,0,-7.659,-7.6601,-7.6721,-7.6766,-7.6779,-7.6858,-7.6895,-7.696,-7.6971,-7.7061,-7.7081,-7.7098,-7.7175,-7.718,-7.7268,-7.7268,-7.7393,-7.7381,-7.7377,-7.7373,-7.7453,-7.7443,-7.7718,-7.7752,-7.7523,-7.7525,-7.7527,0,-7.6709,-7.6785,-7.6839,-7.6885,-7.6914,-7.6989,-7.7034,-7.7032,-7.7079,-7.714,-7.7196,-7.7272,-7.7331,-7.7456,-7.7474,-7.7542,-7.7528,-7.762,-7.7537,-7.7537,-7.7524,-7.7517,-7.7523,-7.7634,-7.7636,-7.7638,-7.764,0,-7.6917,-7.6919,-7.6986,-7.7056,-7.7111,-7.7165,-7.7216,-7.7255,-7.7259,-7.7314,-7.7393,-7.744,-7.7531,-7.7605,-7.7671,-7.7695,-7.7667,-7.7667,-7.7688,-7.7689,-7.7682,-7.7682,-7.7416,-7.7659,-7.7657,-7.7656,-7.7655,-7.7654,-7.7064,-7.713,-7.7177,-7.7253,-7.7292,-7.734,-7.7402,-7.7422,-7.7489,-7.7564,-7.7559,-7.7646,-7.7692,-7.7778,-7.7808,-7.7875,-7.7843,-7.7875,-7.7883,-7.7889,-7.7896,-7.7676,-7.7888,-7.7887,-7.7886,-7.7886,-7.7886,0,-7.7267,-7.7297,-7.7367,-7.7439,-7.7498,-7.7472,-7.7526,-7.7576,-7.7654,-7.77,-7.776,-7.785,-7.7922,-7.7948,-7.8018,-7.8066,-7.8055,-7.8084,-7.8078,-7.8083,-7.7922,-7.7894,-7.8092,-7.8092,-7.8092,-7.8091,-7.8091,-7.8091,-7.7379,-7.7487,-7.7495,-7.7622,-7.765,-7.7736,-7.777,-7.7813,-7.7849,-7.7952,-7.8013,-7.803,-7.8068,-7.814,-7.8204,-7.821,-7.8234,-7.8268,-7.8268,-7.8116,-7.8095,-7.8075,-7.8048,-7.8274,-7.8275,-7.8422,-7.8424,-7.8425]},{"header":{"parameterUnit":"m.s-1","parameterCategory":1,"la1":30.2991,"la2":30.254,"lo1":-89.0895,"lo2":-89.0444,"dy":0.0017,"dx":0.0017,"nx":28,"ny":28,"refTime":"2024-06-16T09:00:00:Z","depth":0,"parameterNumber":3,"parameterNumberName":"V-component_of_WINDS"},"data":[0,0,0,0,0,0,0,0,0,0,0,0,0,0,0,0,0,0,0,0,0,0,0,0,0,0,0,0,0,0,0,0,0,0,0,0,0,0,0,0,0,0,0,0,0,0,0,0,0,0,0,0,0,0,0,0,0,0,2.9314,2.9315,0,2.9405,2.9406,2.9407,2.9411,2.941,2.9409,2.9408,2.9497,2.95,2.9503,0,0,0,0,0,0,0,0,0,0,0,0,0,2.914,2.9143,2.9313,2.9315,2.9316,2.9405,2.9406,2.9407,2.9411,2.941,2.9408,2.9407,2.9495,2.9499,2.9503,0,0,0,0,0,0,0,0,0,0,0,0,0,2.9222,2.9144,2.9313,2.9329,2.9331,2.9404,2.9406,2.9407,2.9411,2.941,2.9408,2.9407,2.9494,2.9499,2.9504,2.9567,0,0,2.9519,2.9521,0,0,0,0,0,0,0,0,2.9217,2.9228,2.9325,2.9328,2.933,2.9395,2.9377,2.9461,2.9412,2.9381,2.9408,2.9406,2.9464,2.9471,2.9492,2.9571,2.9575,2.952,2.9523,2.9525,2.9526,0,0,0,0,0,0,0,2.9211,2.9224,2.9349,2.9327,2.933,2.933,2.934,2.9393,2.943,2.9383,2.9384,2.9395,2.9465,2.9487,2.9494,2.9576,2.952,2.9524,2.9527,2.9529,2.9713,2.9714,0,0,0,0,0,0,2.9203,2.9219,2.9346,2.9352,2.9269,2.9334,2.9345,2.9376,2.9429,2.9436,2.9396,2.9395,2.9479,2.9488,2.9497,2.9574,2.9525,2.953,2.9532,2.9711,2.9713,2.9715,0,0,0,0,0,0,2.9199,2.9214,2.9343,2.9286,2.9302,2.9339,2.9373,2.9378,2.94,2.9439,2.9445,2.9412,2.9478,2.949,2.955,2.9577,2.9532,2.9536,2.9709,2.9712,2.9714,2.973,0,0,0,0,0,0,2.9194,2.9213,2.9238,2.9287,2.9305,2.9395,2.9375,2.9381,2.9409,2.9409,2.9455,2.9462,2.9478,2.9542,2.9555,2.9584,2.954,2.9706,2.971,2.9713,2.9727,2.9732,2.9737,0,0,0,0,0,2.9188,2.9237,2.9239,2.9254,2.9337,2.9397,2.9407,2.9426,2.9412,2.9436,2.9462,2.946,2.9573,2.9549,2.9563,2.9593,2.9705,2.9709,2.9713,2.9724,2.9731,2.9737,0,0,0,0,0,0,2.9188,2.9244,2.9246,2.9313,2.9351,2.9397,2.9429,2.9433,2.9474,2.9471,2.9491,2.9502,2.9562,2.9584,2.9556,2.9657,2.9637,2.9644,2.9641,2.9648,2.9653,2.9646,2.9545,0,0,0,0,0,2.9197,2.9242,2.9287,2.9341,2.936,2.9392,2.9418,2.943,2.9469,2.9484,2.9514,2.955,2.9594,2.9622,2.9665,2.9731,2.9741,2.9759,2.9764,2.9768,2.9774,2.9811,2.9819,2.9729,2.9729,2.9729,0,0,2.9213,2.9249,2.9276,2.9342,2.9373,2.9418,2.9405,2.9453,2.9486,2.9491,2.955,2.9573,2.9616,2.9679,2.9709,2.9699,2.9801,2.9774,2.9777,2.978,2.9816,2.9824,2.9832,2.9732,2.9731,2.9731,0,0,2.9266,2.9298,2.9347,2.9379,2.9426,2.9447,2.9459,2.9507,2.9523,2.9583,2.9588,2.9627,2.9702,2.9733,2.9758,2.9826,2.9826,2.9839,2.9866,2.9902,2.9909,2.9916,2.994,2.9948,2.9845,2.9845,2.9845,0,2.928,2.935,2.9372,2.9421,2.945,2.9459,2.9508,2.9537,2.9595,2.9615,2.9604,2.97,2.9729,2.98,2.9817,2.9837,2.9851,2.9833,2.9907,2.9913,2.992,2.9943,2.9952,2.9846,2.9846,2.9846,2.9845,0,2.9365,2.9413,2.9447,2.9505,2.9538,2.9587,2.9616,2.9647,2.9656,2.9678,2.974,2.9776,2.9826,2.9844,2.9852,2.9917,2.991,2.9903,2.9882,2.9929,2.9951,2.996,2.9848,2.9847,2.9847,2.9847,0,0,2.9418,2.949,2.9502,2.9529,2.9583,2.962,2.967,2.9721,2.9747,2.9787,2.9829,2.9894,2.9888,2.9917,2.993,2.9961,3.0013,2.9951,2.9952,2.9961,3.0086,3.009,3.01,3.0014,3.0016,3.0017,3.0082,0,2.9477,2.9567,2.9589,2.9665,2.971,2.9721,2.9764,2.9801,2.9824,2.9865,2.9889,2.9934,2.9924,2.9942,2.9974,3.0,3.0038,2.9996,3.0052,3.0054,3.004,3.0111,3.0115,3.0175,3.0091,3.0092,3.0093,0,2.9557,2.9601,2.9683,2.9732,2.9752,2.9791,2.984,2.9879,2.9922,2.9936,2.997,2.998,3.0031,3.001,3.0081,3.0052,3.0077,3.0093,3.0096,3.0101,3.0075,3.0117,3.0194,3.0203,3.0107,3.0106,3.0105,0,2.9587,2.9667,2.9727,2.975,2.9809,2.9836,2.9862,2.9903,2.9933,2.9976,2.9996,3.0044,3.007,3.0106,3.0129,3.0111,3.0198,3.0178,3.021,3.021,3.0227,3.0225,3.0308,3.0244,3.0244,3.0244,3.0244,0,2.965,2.9699,2.9742,2.9778,2.9834,2.9859,2.9913,2.9939,2.9976,3.0017,3.0029,3.0067,3.0095,3.0137,3.0154,3.0211,3.0222,3.0235,3.0238,3.0233,3.0231,3.0248,3.0244,3.0247,3.0246,3.0246,3.0245,0,2.9692,2.9723,2.9788,2.9841,2.9855,2.9893,2.9937,2.9973,2.9997,3.0049,3.0062,3.0099,3.0149,3.0176,3.0238,3.025,3.0313,3.0315,3.0299,3.03,3.0331,3.0327,3.0426,3.044,3.0368,3.0369,3.037,0,2.973,2.9768,2.9825,2.9855,2.9882,2.9928,2.996,2.9987,3.0018,3.0072,3.01,3.0152,3.0194,3.0273,3.0305,3.0353,3.0355,3.0387,3.0362,3.0356,3.0355,3.0352,3.0356,3.039,3.0391,3.0392,3.0392,0,2.9793,2.9807,2.9852,2.9904,2.9941,2.9983,3.0023,3.0046,3.008,3.0115,3.0167,3.02,3.0265,3.0316,3.0367,3.0392,3.0398,3.04,3.041,3.0404,3.0393,3.0399,3.031,3.0397,3.0397,3.0396,3.0396,3.0396,2.9834,2.9869,2.9915,2.9966,3.0,3.0038,3.0075,3.0104,3.0149,3.0205,3.0218,3.0273,3.0316,3.0385,3.0412,3.0455,3.0449,3.0463,3.0467,3.047,3.0471,3.0388,3.0465,3.0465,3.0465,3.0465,3.0464,0,2.9897,2.9928,2.9974,3.0032,3.0072,3.0077,3.0123,3.0155,3.0204,3.0245,3.0287,3.0348,3.0397,3.0434,3.0485,3.0512,3.0516,3.0524,3.0522,3.0528,3.0474,3.046,3.052,3.052,3.052,3.052,3.052,3.052,2.9934,2.9994,3.0014,3.0091,3.0122,3.0177,3.0203,3.0239,3.0271,3.0339,3.0381,3.0406,3.0445,3.0498,3.0544,3.0554,3.0571,3.0579,3.0589,3.0537,3.0531,3.0526,3.0513,3.0583,3.0583,3.0639,3.064,3.064]}]]